Date,TemperatureHighF,TemperatureAvgF,TemperatureLowF,DewpointHighF,DewpointAvgF,DewpointLowF,HumidityHigh,HumidityAvg,HumidityLow,PressureMaxIn,PressureMinIn,WindSpeedMaxMPH,WindSpeedAvgMPH,GustSpeedMaxMPH,PrecipitationSumIn
2013-12-1,41,35,29,32,28,23,88,78,70,30.36,30.00,26,5,26,0.00
2013-12-2,46,34,26,39,31,26,100,89,75,30.01,29.89,8,0,8,0.00
2013-12-3,49,33,26,40,31,26,100,92,70,30.01,29.88,10,1,10,0.00
2013-12-4,52,34,22,37,29,21,98,83,53,30.14,30.00,12,1,12,0.00
2013-12-5,51,45,36,52,44,32,103,97,82,30.14,29.88,29,8,29,0.00
2013-12-6,53,40,32,53,38,30,103,93,73,30.19,29.83,34,13,34,0.00
2013-12-7,45,32,27,33,26,16,99,78,56,30.51,30.12,30,7,30,0.00
2013-12-8,36,28,22,25,21,16,87,75,62,30.61,30.43,13,1,13,0.00
2013-12-9,34,30,25,33,29,24,100,97,88,30.43,29.91,20,3,20,0.00
2013-12-10,34,29,22,33,28,19,100,96,84,30.04,29.82,17,2,17,0.00
2013-12-11,35,24,20,23,18,14,91,77,62,30.23,30.03,28,12,28,0.00
2013-12-12,36,21,15,17,10,6,85,65,40,30.33,30.05,27,6,27,0.00
2013-12-13,33,22,17,20,13,8,81,67,55,30.36,30.00,31,14,31,0.00
2013-12-14,20,14,10,15,9,5,94,82,68,30.57,29.96,21,9,21,0.00
2013-12-15,35,25,16,26,21,15,96,84,67,29.96,29.52,26,6,26,0.00
2013-12-16,33,23,9,22,11,5,86,61,42,30.21,29.72,29,8,29,0.00
2013-12-17,20,10,-1,14,7,-5,91,86,76,30.24,29.96,15,1,15,0.00
2013-12-18,42,23,5,25,17,1,92,78,48,30.09,29.93,17,3,17,0.00
2013-12-19,47,33,25,29,24,19,83,70,49,30.11,29.94,33,10,33,0.00
2013-12-20,48,39,29,35,30,25,87,71,55,30.08,29.89,27,9,27,0.00
2013-12-21,59,48,43,47,40,32,93,73,58,29.93,29.80,26,13,26,0.00
2013-12-22,63,57,49,60,55,46,101,93,85,29.91,29.64,36,16,36,0.00
2013-12-23,58,43,34,56,42,26,101,94,70,30.16,29.88,25,10,25,0.00
2013-12-24,36,29,20,29,21,8,82,71,57,30.32,30.09,34,12,34,0.00
2013-12-25,29,19,14,13,9,5,76,64,50,30.53,30.32,32,8,32,0.00
2013-12-26,36,26,19,27,20,11,91,79,67,30.41,30.11,24,8,24,0.00
2013-12-27,44,29,20,28,23,17,94,77,54,30.30,30.21,21,5,21,0.00
2013-12-28,60,36,28,36,27,23,86,69,40,30.22,30.00,31,8,31,0.00
2013-12-29,42,34,27,37,32,24,101,90,64,30.02,29.49,26,6,26,0.00
2013-12-30,35,27,14,34,22,9,101,81,56,30.21,29.64,35,10,35,0.00
2013-12-31,27,19,10,22,13,8,91,78,59,30.23,30.00,27,7,27,0.00